Location: Houston
(29.7631°N, 95.3631°W)
Time: 11:42:46
(UTC-05:00)

UNISAT 6 - Pass Details

Date: 25 September 2021
Orbit: 606 x 687 km, 97.7° (Epoch: 24 October)

Event Time Altitude Azimuth Distance (km) Brightness Sun altitude
Rises 19:52:47 0° 19° (NNE) 3,055 ? -9.3°
Reaches altitude 10° 19:55:07 10° 25° (NNE) 2,132 ? -9.8°
Maximum altitude 19:59:37 46° 99° (E) 910 ? -10.8°
Drops below altitude 10° 20:04:01 10° 173° (S) 2,090 ? -11.7°
Sets 20:06:17 0° 179° (S) 2,988 ? -12.2°
